GM0VGI-13 Weather Reports


time (UTC)temp
C
wind
direction
speed
KPH
gust
KPH
rain 1hr
cm
rain 24hr
cm
rain mn
cm
humidity
%
barometer
mb
20260506185804 7 161 6.4 20.9 0.00 0.00 0.00 73 1013.4
20260506185603 7 163 6.4 19.3 0.00 0.00 0.00 72 1013.4
20260506185403 7 161 8.0 19.3 0.00 0.00 0.00 72 1013.4
20260506185204 7 160 8.0 19.3 0.00 0.00 0.00 72 1013.4
20260506185005 7 155 8.0 19.3 0.00 0.00 0.00 72 1013.4
20260506184804 7 156 8.0 19.3 0.00 0.00 0.00 72 1013.4
20260506184603 7 154 8.0 19.3 0.00 0.00 0.00 72 1013.4
20260506184403 7 153 8.0 19.3 0.00 0.00 0.00 72 1013.3
20260506184203 7 151 8.0 19.3 0.00 0.00 0.00 72 1013.3
20260506184003 7 150 8.0 17.7 0.00 0.00 0.00 72 1013.3
20260506183803 7 150 8.0 20.9 0.00 0.00 0.00 72 1013.3
20260506183603 7 149 9.7 22.5 0.00 0.00 0.00 71 1013.3
20260506183404 7 151 9.7 25.7 0.00 0.00 0.00 71 1013.3
20260506183203 7 152 11.3 25.7 0.00 0.00 0.00 71 1013.3
20260506183005 7 154 9.7 25.7 0.00 0.00 0.00 71 1013.3
20260506182803 7 154 9.7 25.7 0.00 0.00 0.00 71 1013.3
20260506182603 7 152 9.7 25.7 0.00 0.00 0.00 70 1013.3
20260506182403 7 150 8.0 20.9 0.00 0.00 0.00 70 1013.3
20260506182204 7 151 6.4 20.9 0.00 0.00 0.00 70 1013.3
20260506182004 7 150 8.0 20.9 0.00 0.00 0.00 71 1013.4
20260506181804 7 150 6.4 17.7 0.00 0.00 0.00 71 1013.4
20260506181605 7 155 8.0 16.1 0.00 0.00 0.00 71 1013.4
20260506181404 7 156 8.0 22.5 0.00 0.00 0.00 70 1013.3
20260506181203 7 156 9.7 22.5 0.00 0.00 0.00 70 1013.3
20260506181003 7 156 9.7 22.5 0.00 0.00 0.00 70 1013.3
20260506180804 7 155 11.3 22.5 0.00 0.00 0.00 69 1013.3
20260506180603 7 154 11.3 22.5 0.00 0.00 0.00 69 1013.3
20260506180403 7 154 9.7 22.5 0.00 0.00 0.00 69 1013.4
20260506180204 7 153 9.7 22.5 0.00 0.00 0.00 69 1013.3
20260506180005 7 151 9.7 22.5 0.00 0.00 0.00 69 1013.3
20260506175803 7 153 8.0 16.1 0.00 0.00 0.00 69 1013.3
20260506175603 7 155 8.0 16.1 0.00 0.00 0.00 69 1013.4
20260506175404 8 158 8.0 16.1 0.00 0.00 0.00 70 1013.3
20260506175204 7 157 8.0 19.3 0.00 0.00 0.00 69 1013.4
20260506175003 8 159 8.0 19.3 0.00 0.00 0.00 68 1013.3
20260506174804 8 156 8.0 19.3 0.00 0.00 0.00 68 1013.3
20260506174604 8 151 9.7 19.3 0.00 0.00 0.00 68 1013.4
20260506174403 8 149 8.0 19.3 0.00 0.00 0.00 69 1013.4
20260506174203 8 150 8.0 19.3 0.00 0.00 0.00 69 1013.4
20260506174003 8 149 8.0 19.3 0.00 0.00 0.00 68 1013.4
20260506173803 8 149 8.0 19.3 0.00 0.00 0.00 68 1013.5
20260506173604 8 149 8.0 19.3 0.00 0.00 0.00 68 1013.5
20260506173403 8 147 9.7 20.9 0.00 0.00 0.00 68 1013.5
20260506173203 8 149 9.7 20.9 0.00 0.00 0.00 68 1013.5
20260506173004 8 151 9.7 20.9 0.00 0.00 0.00 67 1013.4
20260506172803 8 151 9.7 20.9 0.00 0.00 0.00 67 1013.4
20260506172604 8 150 9.7 20.9 0.00 0.00 0.00 67 1013.4
20260506172404 8 152 8.0 20.9 0.00 0.00 0.00 66 1013.4
20260506172203 8 151 8.0 19.3 0.00 0.00 0.00 67 1013.4
20260506172003 8 149 9.7 20.9 0.00 0.00 0.00 67 1013.4
20260506171803 8 150 9.7 20.9 0.00 0.00 0.00 67 1013.4
20260506171603 8 154 9.7 20.9 0.00 0.00 0.00 67 1013.5
20260506171403 8 159 8.0 20.9 0.00 0.00 0.00 66 1013.6
20260506171203 8 167 8.0 20.9 0.00 0.00 0.00 66 1013.5
20260506171004 8 177 8.0 19.3 0.00 0.00 0.00 66 1013.5
20260506170803 8 178 8.0 19.3 0.00 0.00 0.00 65 1013.4
20260506170604 8 180 8.0 19.3 0.00 0.00 0.00 65 1013.5
20260506170403 8 174 8.0 19.3 0.00 0.00 0.00 65 1013.3
20260506170204 8 168 9.7 19.3 0.00 0.00 0.00 64 1013.5
20260506170004 8 165 9.7 20.9 0.00 0.00 0.00 64 1013.4
20260506165804 8 166 9.7 20.9 0.00 0.00 0.00 64 1013.4
20260506165603 8 167 11.3 27.4 0.00 0.00 0.00 64 1013.5
20260506165404 8 165 11.3 27.4 0.00 0.00 0.00 65 1013.4
20260506165203 8 164 11.3 27.4 0.00 0.00 0.00 65 1013.5
20260506165004 8 166 11.3 27.4 0.00 0.00 0.00 64 1013.5
20260506164804 9 169 11.3 27.4 0.00 0.00 0.00 64 1013.4
20260506164603 9 164 11.3 27.4 0.00 0.00 0.00 64 1013.5
20260506164403 9 165 11.3 27.4 0.00 0.00 0.00 63 1013.5
20260506164203 10 166 11.3 27.4 0.00 0.00 0.00 62 1013.5
20260506164003 10 160 11.3 27.4 0.00 0.00 0.00 62 1013.4
20260506163803 10 159 11.3 25.7 0.00 0.00 0.00 62 1013.5
20260506163603 10 165 11.3 25.7 0.00 0.00 0.00 61 1013.4
20260506163404 10 166 11.3 25.7 0.00 0.00 0.00 61 1013.4
20260506163204 10 165 9.7 22.5 0.00 0.00 0.00 63 1013.4
20260506163003 10 168 9.7 22.5 0.00 0.00 0.00 63 1013.4
20260506162803 10 164 9.7 22.5 0.00 0.00 0.00 64 1013.4
20260506162603 10 161 9.7 22.5 0.00 0.00 0.00 65 1013.5
20260506162403 10 161 9.7 25.7 0.00 0.00 0.00 66 1013.5
20260506162204 9 164 11.3 25.7 0.00 0.00 0.00 64 1013.5
20260506162004 9 161 11.3 25.7 0.00 0.00 0.00 63 1013.5
20260506161803 10 162 11.3 25.7 0.00 0.00 0.00 63 1013.6
20260506161603 10 160 11.3 25.7 0.00 0.00 0.00 62 1013.6
20260506161403 10 158 11.3 22.5 0.00 0.00 0.00 62 1013.6
20260506161203 10 158 9.7 22.5 0.00 0.00 0.00 62 1013.6
20260506161004 10 163 9.7 22.5 0.00 0.00 0.00 62 1013.7
20260506160804 10 165 9.7 22.5 0.00 0.00 0.00 62 1013.7
20260506160604 10 169 9.7 22.5 0.00 0.00 0.00 62 1013.7
20260506160403 10 168 9.7 20.9 0.00 0.00 0.00 62 1013.7
20260506160203 10 164 9.7 20.9 0.00 0.00 0.00 61 1013.6
20260506160003 10 162 9.7 20.9 0.00 0.00 0.00 62 1013.7
20260506155804 10 159 11.3 25.7 0.00 0.00 0.00 61 1013.6
20260506155603 10 154 11.3 25.7 0.00 0.00 0.00 61 1013.5
20260506155404 10 154 11.3 25.7 0.00 0.00 0.00 61 1013.5
20260506155204 10 153 12.9 29.0 0.00 0.00 0.00 61 1013.6
20260506155003 10 151 14.5 29.0 0.00 0.00 0.00 61 1013.5
20260506154803 10 149 14.5 29.0 0.00 0.00 0.00 62 1013.5
20260506154603 10 148 14.5 29.0 0.00 0.00 0.00 63 1013.5
20260506154404 10 148 14.5 27.4 0.00 0.00 0.00 62 1013.5
20260506154203 10 147 14.5 27.4 0.00 0.00 0.00 62 1013.5
20260506154003 10 147 12.9 27.4 0.00 0.00 0.00 62 1013.5
20260506153803 10 148 12.9 27.4 0.00 0.00 0.00 63 1013.5
20260506153604 10 147 14.5 29.0 0.00 0.00 0.00 63 1013.5
20260506153404 10 147 16.1 29.0 0.00 0.00 0.00 64 1013.5
20260506153204 10 147 16.1 29.0 0.00 0.00 0.00 64 1013.5
20260506153003 10 147 16.1 29.0 0.00 0.00 0.00 64 1013.5
20260506152803 10 147 16.1 29.0 0.00 0.00 0.00 64 1013.5
20260506152603 10 148 14.5 27.4 0.00 0.00 0.00 65 1013.4
20260506152405 10 148 14.5 22.5 0.00 0.00 0.00 66 1013.5
20260506152203 9 148 14.5 27.4 0.00 0.00 0.00 66 1013.5
20260506152003 9 148 16.1 30.6 0.00 0.00 0.00 65 1013.5
20260506151804 9 148 16.1 30.6 0.00 0.00 0.00 66 1013.6
20260506151603 9 147 16.1 30.6 0.00 0.00 0.00 66 1013.6
20260506151403 9 147 17.7 30.6 0.00 0.00 0.00 66 1013.6
20260506151203 9 147 16.1 30.6 0.00 0.00 0.00 65 1013.6
20260506151004 9 146 14.5 29.0 0.00 0.00 0.00 66 1013.6
20260506150803 9 146 14.5 29.0 0.00 0.00 0.00 67 1013.6
20260506150604 8 147 14.5 27.4 0.00 0.00 0.00 67 1013.6
20260506150403 8 147 14.5 27.4 0.00 0.00 0.00 67 1013.7
20260506150203 8 147 16.1 27.4 0.00 0.00 0.00 67 1013.7
20260506150003 8 146 14.5 27.4 0.00 0.00 0.00 67 1013.7
20260506145803 8 146 14.5 27.4 0.00 0.00 0.00 66 1013.7
20260506145603 8 145 14.5 29.0 0.00 0.00 0.00 66 1013.7
20260506145403 8 145 14.5 29.0 0.00 0.00 0.00 67 1013.7
20260506145204 8 146 16.1 29.0 0.00 0.00 0.00 66 1013.8
20260506145004 8 147 17.7 29.0 0.00 0.00 0.00 67 1013.7
20260506144803 8 147 17.7 29.0 0.00 0.00 0.00 66 1013.7
20260506144604 8 148 17.7 27.4 0.00 0.00 0.00 66 1013.8
20260506144403 8 147 16.1 27.4 0.00 0.00 0.00 66 1013.8
20260506144203 8 148 16.1 27.4 0.00 0.00 0.00 66 1013.7
20260506144003 9 148 14.5 27.4 0.00 0.00 0.00 66 1013.8
20260506143803 9 147 14.5 27.4 0.00 0.00 0.00 66 1013.8
20260506143603 9 147 14.5 27.4 0.00 0.00 0.00 65 1013.8
20260506143403 9 148 16.1 25.7 0.00 0.00 0.00 66 1013.9
20260506143203 9 148 14.5 25.7 0.00 0.00 0.00 65 1013.9
20260506143004 9 148 14.5 25.7 0.00 0.00 0.00 65 1013.9
20260506142804 9 148 12.9 25.7 0.00 0.00 0.00 65 1013.9
20260506142603 9 149 11.3 25.7 0.00 0.00 0.00 65 1013.9
20260506142403 9 150 11.3 22.5 0.00 0.00 0.00 65 1014.0
20260506142204 9 148 11.3 22.5 0.00 0.00 0.00 65 1014.0
20260506142004 9 147 11.3 22.5 0.00 0.00 0.00 65 1014.0
20260506141803 9 148 12.9 22.5 0.00 0.00 0.00 64 1014.1
20260506141604 9 149 14.5 29.0 0.00 0.00 0.00 64 1014.0
20260506141403 9 148 14.5 35.4 0.00 0.00 0.00 65 1014.0
20260506141203 9 149 14.5 35.4 0.00 0.00 0.00 64 1014.1
20260506141003 10 150 14.5 35.4 0.00 0.00 0.00 64 1014.0
20260506140803 10 149 16.1 35.4 0.00 0.00 0.00 63 1014.0
20260506140603 10 148 14.5 35.4 0.00 0.00 0.00 65 1014.1
20260506140404 10 147 14.5 27.4 0.00 0.00 0.00 64 1014.0
20260506140203 10 146 14.5 27.4 0.00 0.00 0.00 64 1014.0
20260506140003 10 145 14.5 27.4 0.00 0.00 0.00 64 1014.0
20260506135803 10 144 16.1 27.4 0.00 0.00 0.00 63 1014.1
20260506135604 10 143 14.5 27.4 0.00 0.00 0.00 64 1014.1
20260506135404 10 144 14.5 27.4 0.00 0.00 0.00 62 1014.1
20260506135204 10 144 12.9 25.7 0.00 0.00 0.00 62 1014.1
20260506135004 11 144 12.9 25.7 0.00 0.00 0.00 62 1014.1
20260506134803 11 144 12.9 27.4 0.00 0.00 0.00 63 1014.1
20260506134604 11 145 12.9 27.4 0.00 0.00 0.00 63 1014.2
20260506134403 11 144 12.9 27.4 0.00 0.00 0.00 63 1014.2
20260506134203 11 144 12.9 27.4 0.00 0.00 0.00 64 1014.2
20260506134003 11 145 12.9 27.4 0.00 0.00 0.00 63 1014.2
20260506133803 10 145 12.9 32.2 0.00 0.00 0.00 65 1014.2
20260506133604 10 145 14.5 32.2 0.00 0.00 0.00 66 1014.2
20260506133404 10 147 16.1 32.2 0.00 0.00 0.00 65 1014.2
20260506133204 10 146 16.1 32.2 0.00 0.00 0.00 64 1014.2
20260506133004 10 145 16.1 32.2 0.00 0.00 0.00 64 1014.2
20260506132803 10 144 16.1 30.6 0.00 0.00 0.00 63 1014.2
20260506132604 10 144 14.5 27.4 0.00 0.00 0.00 63 1014.3
20260506132405 10 144 12.9 22.5 0.00 0.00 0.00 64 1014.2
20260506132204 10 144 12.9 22.5 0.00 0.00 0.00 64 1014.3
20260506132005 10 145 12.9 22.5 0.00 0.00 0.00 63 1014.3
20260506131804 10 146 12.9 30.6 0.00 0.00 0.00 63 1014.3
20260506131604 10 146 12.9 30.6 0.00 0.00 0.00 64 1014.3
20260506131403 10 146 12.9 30.6 0.00 0.00 0.00 63 1014.3
20260506131203 10 146 12.9 30.6 0.00 0.00 0.00 63 1014.4
20260506131004 10 147 12.9 30.6 0.00 0.00 0.00 62 1014.4
20260506130803 10 147 12.9 29.0 0.00 0.00 0.00 63 1014.3
20260506130603 10 148 12.9 29.0 0.00 0.00 0.00 64 1014.4
20260506130404 10 148 14.5 29.0 0.00 0.00 0.00 64 1014.4
20260506130204 10 149 14.5 29.0 0.00 0.00 0.00 65 1014.3
20260506130003 10 148 14.5 29.0 0.00 0.00 0.00 65 1014.4
20260506125804 10 147 12.9 22.5 0.00 0.00 0.00 64 1014.4
20260506125603 10 146 11.3 22.5 0.00 0.00 0.00 65 1014.3
20260506125404 10 145 11.3 20.9 0.00 0.00 0.00 65 1014.3
20260506125204 10 145 9.7 20.9 0.00 0.00 0.00 66 1014.4
20260506125003 9 148 9.7 20.9 0.00 0.00 0.00 65 1014.4
20260506124804 9 154 8.0 20.9 0.00 0.00 0.00 65 1014.4
20260506124604 9 157 8.0 19.3 0.00 0.00 0.00 65 1014.5
20260506124404 9 156 9.7 19.3 0.00 0.00 0.00 64 1014.4
20260506124204 9 153 9.7 19.3 0.00 0.00 0.00 64 1014.5
20260506124004 9 152 9.7 19.3 0.00 0.00 0.00 64 1014.5
20260506123803 9 151 9.7 19.3 0.00 0.00 0.00 65 1014.4
20260506123604 9 149 9.7 19.3 0.00 0.00 0.00 65 1014.3
20260506123404 9 151 8.0 19.3 0.00 0.00 0.00 64 1014.5
20260506123204 9 152 9.7 19.3 0.00 0.00 0.00 63 1014.5
20260506123003 9 150 9.7 19.3 0.00 0.00 0.00 64 1014.4
20260506122804 9 147 9.7 19.3 0.00 0.00 0.00 64 1014.5
20260506122603 9 144 9.7 17.7 0.00 0.00 0.00 63 1014.4
20260506122403 9 141 9.7 17.7 0.00 0.00 0.00 63 1014.5
20260506122204 9 136 9.7 17.7 0.00 0.00 0.00 64 1014.5
20260506122003 10 133 9.7 17.7 0.00 0.00 0.00 63 1014.5
20260506121803 10 124 8.0 17.7 0.00 0.00 0.00 63 1014.5
20260506121604 10 122 8.0 16.1 0.00 0.00 0.00 64 1014.5
20260506121404 10 119 8.0 16.1 0.00 0.00 0.00 64 1014.5
20260506121203 10 117 9.7 19.3 0.00 0.00 0.00 63 1014.4
20260506121004 10 118 9.7 19.3 0.00 0.00 0.00 61 1014.5
20260506120803 10 117 9.7 19.3 0.00 0.00 0.00 62 1014.5
20260506120603 10 119 9.7 19.3 0.00 0.00 0.00 61 1014.5
20260506120404 10 119 9.7 20.9 0.00 0.00 0.00 61 1014.5
20260506120203 11 125 9.7 20.9 0.00 0.00 0.00 62 1014.6
20260506120004 11 124 9.7 20.9 0.00 0.00 0.00 60 1014.5
20260506115803 11 127 9.7 20.9 0.00 0.00 0.00 61 1014.6
20260506115603 11 127 11.3 20.9 0.00 0.00 0.00 59 1014.5
20260506115403 11 130 9.7 20.9 0.00 0.00 0.00 60 1014.5
20260506115203 11 123 9.7 17.7 0.00 0.00 0.00 58 1014.5
20260506115004 11 123 9.7 16.1 0.00 0.00 0.00 59 1014.5
20260506114803 11 118 9.7 19.3 0.00 0.00 0.00 59 1014.5
20260506114603 11 116 8.0 19.3 0.00 0.00 0.00 56 1014.5
20260506114404 11 117 9.7 19.3 0.00 0.00 0.00 56 1014.5
20260506114203 11 117 9.7 19.3 0.00 0.00 0.00 60 1014.5
20260506114005 11 119 8.0 19.3 0.00 0.00 0.00 58 1014.5
20260506113803 11 123 6.4 17.7 0.00 0.00 0.00 59 1014.5
20260506113604 11 121 6.4 17.7 0.00 0.00 0.00 60 1014.5
20260506113403 10 111 4.8 17.7 0.00 0.00 0.00 55 1014.5
20260506113204 10 107 4.8 12.9 0.00 0.00 0.00 55 1014.5
20260506113005 10 105 4.8 12.9 0.00 0.00 0.00 53 1014.5
20260506112803 10 115 4.8 12.9 0.00 0.00 0.00 53 1014.5
20260506112603 10 135 4.8 12.9 0.00 0.00 0.00 52 1014.5
20260506112404 10 167 4.8 16.1 0.00 0.00 0.00 52 1014.5
20260506112203 10 205 4.8 16.1 0.00 0.00 0.00 53 1014.6
20260506112003 10 203 4.8 16.1 0.00 0.00 0.00 52 1014.5
20260506111803 10 182 4.8 16.1 0.00 0.00 0.00 55 1014.6
20260506111604 10 158 4.8 16.1 0.00 0.00 0.00 52 1014.6
20260506111404 11 140 6.4 12.9 0.00 0.00 0.00 51 1014.6
20260506111204 11 123 6.4 16.1 0.00 0.00 0.00 53 1014.6
20260506111003 11 115 8.0 19.3 0.00 0.00 0.00 52 1014.6
20260506110803 11 110 8.0 19.3 0.00 0.00 0.00 51 1014.6
20260506110603 11 107 8.0 19.3 0.00 0.00 0.00 51 1014.6
20260506110404 11 109 8.0 19.3 0.00 0.00 0.00 51 1014.6
20260506110203 11 116 8.0 19.3 0.00 0.00 0.00 51 1014.5
20260506110003 11 120 8.0 17.7 0.00 0.00 0.00 51 1014.6
20260506105804 12 124 6.4 17.7 0.00 0.00 0.00 50 1014.6
20260506105604 12 131 6.4 17.7 0.00 0.00 0.00 54 1014.6
20260506105403 11 131 6.4 17.7 0.00 0.00 0.00 56 1014.7
20260506105203 11 128 6.4 17.7 0.00 0.00 0.00 54 1014.6
20260506105003 11 124 4.8 12.9 0.00 0.00 0.00 54 1014.7
20260506104803 11 122 4.8 12.9 0.00 0.00 0.00 55 1014.7
20260506104604 11 120 4.8 12.9 0.00 0.00 0.00 57 1014.7
20260506104405 11 119 4.8 12.9 0.00 0.00 0.00 57 1014.8
20260506104203 11 117 4.8 12.9 0.00 0.00 0.00 58 1014.8
20260506104003 11 114 4.8 12.9 0.00 0.00 0.00 56 1014.8
20260506103803 11 116 6.4 12.9 0.00 0.00 0.00 57 1014.7
20260506103604 10 121 6.4 12.9 0.00 0.00 0.00 58 1014.8
20260506103404 10 126 6.4 12.9 0.00 0.00 0.00 57 1014.8
20260506103205 10 137 6.4 11.3 0.00 0.00 0.00 56 1014.8
20260506103003 10 157 4.8 11.3 0.00 0.00 0.00 58 1014.8
20260506102803 10 181 4.8 11.3 0.00 0.00 0.00 57 1014.8
20260506102604 10 178 4.8 11.3 0.00 0.00 0.00 57 1014.8
20260506102404 10 176 4.8 11.3 0.00 0.00 0.00 57 1014.8
20260506102204 10 159 4.8 11.3 0.00 0.00 0.00 57 1014.8
20260506102005 10 144 4.8 11.3 0.00 0.00 0.00 57 1014.8
20260506101804 11 114 4.8 16.1 0.00 0.00 0.00 56 1014.8
20260506101603 11 98 4.8 16.1 0.00 0.00 0.00 54 1014.8
20260506101403 11 96 4.8 16.1 0.00 0.00 0.00 55 1014.8
20260506101203 11 104 4.8 16.1 0.00 0.00 0.00 50 1014.9
20260506101003 11 111 6.4 16.1 0.00 0.00 0.00 50 1014.8
20260506100804 11 125 4.8 16.1 0.00 0.00 0.00 53 1014.9
20260506100604 11 156 4.8 12.9 0.00 0.00 0.00 52 1014.9
20260506100403 11 162 4.8 12.9 0.00 0.00 0.00 57 1015.0
20260506100203 11 166 4.8 12.9 0.00 0.00 0.00 58 1015.0
20260506100004 11 170 6.4 12.9 0.00 0.00 0.00 52 1015.0
20260506095803 11 167 6.4 12.9 0.00 0.00 0.00 50 1015.0
20260506095603 12 157 6.4 12.9 0.00 0.00 0.00 52 1015.1
20260506095404 12 155 6.4 12.9 0.00 0.00 0.00 53 1015.0
20260506095204 12 157 6.4 12.9 0.00 0.00 0.00 55 1015.1
20260506095003 11 163 6.4 12.9 0.00 0.00 0.00 55 1015.1
20260506094803 11 173 6.4 12.9 0.00 0.00 0.00 54 1015.0
20260506094603 11 179 4.8 11.3 0.00 0.00 0.00 56 1015.0
20260506094403 11 177 6.4 12.9 0.00 0.00 0.00 57 1015.1
20260506094203 11 169 6.4 12.9 0.00 0.00 0.00 53 1015.0
20260506094003 11 161 6.4 12.9 0.00 0.00 0.00 54 1015.0
20260506093803 11 153 6.4 12.9 0.00 0.00 0.00 55 1015.0
20260506093603 11 151 6.4 11.3 0.00 0.00 0.00 58 1015.0
20260506093403 11 148 6.4 11.3 0.00 0.00 0.00 55 1015.1
20260506093204 11 160 6.4 17.7 0.00 0.00 0.00 56 1015.0
20260506093003 11 155 6.4 17.7 0.00 0.00 0.00 55 1015.0
20260506092803 11 154 6.4 17.7 0.00 0.00 0.00 57 1015.1
20260506092605 11 150 6.4 17.7 0.00 0.00 0.00 57 1015.0
20260506092403 10 148 6.4 17.7 0.00 0.00 0.00 58 1015.1
20260506092203 10 151 6.4 12.9 0.00 0.00 0.00 58 1015.0
20260506092003 10 171 6.4 12.9 0.00 0.00 0.00 58 1015.1
20260506091803 10 186 4.8 12.9 0.00 0.00 0.00 58 1015.2
20260506091603 10 203 4.8 12.9 0.00 0.00 0.00 58 1015.2
20260506091403 10 207 4.8 9.7 0.00 0.00 0.00 55 1015.3
20260506091203 10 195 4.8 11.3 0.00 0.00 0.00 55 1015.4
20260506091004 10 179 4.8 16.1 0.00 0.00 0.00 56 1015.4
20260506090803 10 182 4.8 16.1 0.00 0.00 0.00 57 1015.5
20260506090603 10 186 4.8 16.1 0.00 0.00 0.00 57 1015.5
20260506090403 10 199 4.8 16.1 0.00 0.00 0.00 57 1015.4
20260506090203 10 206 4.8 16.1 0.00 0.00 0.00 60 1015.5
20260506090003 10 219 3.2 9.7 0.00 0.00 0.00 58 1015.4
20260506085804 10 206 3.2 9.7 0.00 0.00 0.00 56 1015.5
20260506085603 10 188 3.2 9.7 0.00 0.00 0.00 58 1015.5
20260506085405 10 168 3.2 9.7 0.00 0.00 0.00 58 1015.5
20260506085204 10 153 3.2 9.7 0.00 0.00 0.00 59 1015.5
20260506085005 10 150 3.2 9.7 0.00 0.00 0.00 60 1015.6
20260506084804 10 146 4.8 11.3 0.00 0.00 0.00 61 1015.6
20260506084604 10 147 4.8 12.9 0.00 0.00 0.00 61 1015.6
20260506084404 10 152 6.4 12.9 0.00 0.00 0.00 60 1015.6
20260506084205 10 152 6.4 12.9 0.00 0.00 0.00 62 1015.6
20260506084004 10 152 6.4 12.9 0.00 0.00 0.00 62 1015.6
20260506083803 10 152 6.4 12.9 0.00 0.00 0.00 63 1015.7
20260506083603 10 148 4.8 12.9 0.00 0.00 0.00 64 1015.7
20260506083403 10 143 4.8 12.9 0.00 0.00 0.00 63 1015.6
20260506083203 10 146 4.8 12.9 0.00 0.00 0.00 62 1015.6
20260506083003 10 151 4.8 12.9 0.00 0.00 0.00 63 1015.6
20260506082804 10 157 4.8 12.9 0.00 0.00 0.00 62 1015.6
20260506082604 10 165 4.8 12.9 0.00 0.00 0.00 64 1015.6
20260506082403 10 175 3.2 9.7 0.00 0.00 0.00 64 1015.6
20260506082205 10 177 4.8 11.3 0.00 0.00 0.00 65 1015.6
20260506082004 9 176 3.2 11.3 0.00 0.00 0.00 65 1015.6
20260506081803 9 173 3.2 11.3 0.00 0.00 0.00 65 1015.6
20260506081603 9 169 4.8 11.3 0.00 0.00 0.00 64 1015.6
20260506081404 9 161 3.2 11.3 0.00 0.00 0.00 64 1015.6
20260506081203 9 157 3.2 9.7 0.00 0.00 0.00 65 1015.6
20260506081003 9 159 3.2 9.7 0.00 0.00 0.00 67 1015.6
20260506080804 9 162 3.2 9.7 0.00 0.00 0.00 68 1015.6
20260506080603 9 175 3.2 9.7 0.00 0.00 0.00 68 1015.6
20260506080404 8 190 3.2 9.7 0.00 0.00 0.00 69 1015.6
20260506080204 8 202 1.6 6.4 0.00 0.00 0.00 68 1015.7
20260506073403 7 352 1.6 6.4 0.00 0.00 0.00 72 1015.8
20260506073203 7 351 1.6 6.4 0.00 0.00 0.00 73 1015.9
20260506073003 6 350 1.6 6.4 0.00 0.00 0.00 73 1015.8
20260506072804 6 350 1.6 6.4 0.00 0.00 0.00 74 1015.9
20260506072603 6 349 1.6 3.2 0.00 0.00 0.00 72 1015.9
20260506072404 6 349 1.6 3.2 0.00 0.00 0.00 71 1015.9
20260506072203 6 349 1.6 3.2 0.00 0.00 0.00 71 1016.0
20260506072003 6 349 1.6 3.2 0.00 0.00 0.00 71 1015.9
20260506071803 6 349 1.6 3.2 0.00 0.00 0.00 72 1015.9
20260506071603 6 349 1.6 6.4 0.00 0.00 0.00 72 1015.9
20260506071403 6 349 1.6 6.4 0.00 0.00 0.00 72 1016.0
20260506071203 6 349 1.6 6.4 0.00 0.00 0.00 73 1015.9
20260506071004 6 349 1.6 6.4 0.00 0.00 0.00 73 1015.9
20260506070803 6 349 1.6 6.4 0.00 0.00 0.00 74 1016.0
20260506070604 5 349 3.2 6.4 0.00 0.00 0.00 74 1016.0
20260506070404 5 349 3.2 6.4 0.00 0.00 0.00 74 1016.0
20260506070204 5 349 3.2 6.4 0.00 0.00 0.00 74 1016.0
20260506062404 3 327 1.6 6.4 0.00 0.03 0.00 81 1015.9
20260506062204 3 326 1.6 6.4 0.00 0.03 0.00 81 1016.0
20260506062004 3 326 1.6 3.2 0.00 0.03 0.00 82 1015.9
20260506061803 3 326 1.6 3.2 0.00 0.03 0.00 83 1015.9
20260506061603 2 326 1.6 3.2 0.00 0.03 0.00 83 1015.9
20260506061404 2 326 1.6 3.2 0.00 0.03 0.00 83 1015.9
20260506061204 2 326 1.6 3.2 0.00 0.03 0.00 83 1015.9
20260506061003 2 326 1.6 3.2 0.00 0.03 0.00 83 1015.8
20260506060803 2 326 1.6 3.2 0.00 0.03 0.00 83 1015.9
20260506060604 2 326 1.6 3.2 0.00 0.03 0.00 83 1015.9
20260506060404 2 326 1.6 3.2 0.00 0.03 0.00 84 1016.0
20260506060203 2 326 1.6 3.2 0.00 0.03 0.00 84 1016.0
20260506051404 0 0 0.0 0.0 0.00 0.03 0.00 88 1016.2
20260506051203 0 0 0.0 0.0 0.00 0.03 0.00 88 1016.2
20260506051004 0 325 0.0 1.6 0.00 0.03 0.00 88 1016.2
20260506050803 0 325 0.0 1.6 0.00 0.03 0.00 89 1016.2
20260506050605 0 325 0.0 1.6 0.00 0.03 0.00 89 1016.1
20260506050403 0 325 0.0 1.6 0.00 0.03 0.00 89 1016.2
20260506050203 0 325 0.0 1.6 0.00 0.03 0.00 89 1016.2
20260506045003 -1 0 0.0 0.0 0.00 0.03 0.00 88 1016.2
20260506044803 -1 325 0.0 1.6 0.00 0.03 0.00 88 1016.2
20260506044604 -1 325 0.0 1.6 0.00 0.03 0.00 88 1016.2
20260506044404 -1 325 0.0 1.6 0.00 0.03 0.00 88 1016.3
20260506044204 -1 325 0.0 1.6 0.00 0.03 0.00 88 1016.3
20260506044003 -1 325 0.0 1.6 0.00 0.03 0.00 88 1016.2
20260506043803 -1 0 0.0 0.0 0.00 0.03 0.00 88 1016.2
20260506043604 -1 0 0.0 0.0 0.00 0.03 0.00 88 1016.2
20260506043403 -1 0 0.0 0.0 0.00 0.03 0.00 88 1016.3
20260506043204 -1 0 0.0 0.0 0.00 0.03 0.00 88 1016.4
20260506043003 -1 0 0.0 0.0 0.00 0.03 0.00 88 1016.2
20260506042803 -1 0 0.0 0.0 0.00 0.03 0.00 88 1016.2
20260506042604 -1 0 0.0 0.0 0.00 0.03 0.00 87 1016.2
20260506042403 -1 0 0.0 0.0 0.00 0.03 0.00 87 1016.2
20260506042203 -1 0 0.0 0.0 0.00 0.03 0.00 87 1016.3
20260506042004 -1 0 0.0 0.0 0.00 0.03 0.00 87 1016.3
20260506041803 -1 0 0.0 0.0 0.00 0.03 0.00 87 1016.3
20260506041603 -1 0 0.0 0.0 0.00 0.03 0.00 88 1016.3
20260506041404 -1 0 0.0 0.0 0.00 0.03 0.00 88 1016.3
20260506041203 -1 0 0.0 0.0 0.00 0.03 0.00 88 1016.3
20260506041004 -1 0 0.0 0.0 0.00 0.03 0.00 87 1016.3
20260506040803 -1 0 0.0 0.0 0.00 0.03 0.00 87 1016.2
20260506040603 -1 0 0.0 0.0 0.00 0.03 0.00 87 1016.2
20260506040404 -1 0 0.0 0.0 0.00 0.03 0.00 88 1016.2
20260506040203 -1 0 0.0 0.0 0.00 0.03 0.00 88 1016.3
20260506040003 -1 0 0.0 0.0 0.00 0.03 0.00 87 1016.3
20260506035804 -1 0 0.0 0.0 0.00 0.03 0.00 87 1016.2
20260506035603 -1 0 0.0 0.0 0.00 0.03 0.00 87 1016.2
20260506035404 -1 0 0.0 0.0 0.00 0.03 0.00 87 1016.3
20260506035203 -1 0 0.0 0.0 0.00 0.03 0.00 87 1016.3
20260506035003 -1 0 0.0 0.0 0.00 0.03 0.00 87 1016.2
20260506034803 -1 0 0.0 0.0 0.00 0.03 0.00 87 1016.3
20260506034604 -1 0 0.0 0.0 0.00 0.03 0.00 87 1016.2
20260506034403 -1 0 0.0 0.0 0.00 0.03 0.00 87 1016.3
20260506034204 -1 0 0.0 0.0 0.00 0.03 0.00 87 1016.3
20260506034004 -1 0 0.0 0.0 0.00 0.03 0.00 87 1016.2
20260506033803 -1 0 0.0 0.0 0.00 0.03 0.00 87 1016.3
20260506033604 0 0 0.0 0.0 0.00 0.03 0.00 87 1016.4
20260506033403 0 0 0.0 0.0 0.00 0.03 0.00 87 1016.3
20260506033204 0 0 0.0 0.0 0.00 0.03 0.00 87 1016.3
20260506033005 0 0 0.0 0.0 0.00 0.03 0.00 87 1016.2
20260506032803 0 0 0.0 0.0 0.00 0.03 0.00 87 1016.4
20260506032603 0 0 0.0 0.0 0.00 0.03 0.00 87 1016.4
20260506032403 0 0 0.0 0.0 0.00 0.03 0.00 87 1016.3
20260506032203 0 0 0.0 0.0 0.00 0.03 0.00 87 1016.4
20260506032004 0 0 0.0 0.0 0.00 0.03 0.00 87 1016.4
20260506031804 0 0 0.0 0.0 0.00 0.03 0.00 87 1016.4
20260506031603 0 0 0.0 0.0 0.00 0.03 0.00 87 1016.4
20260506031403 0 0 0.0 0.0 0.00 0.03 0.00 87 1016.4
20260506031204 0 0 0.0 0.0 0.00 0.03 0.00 87 1016.5
20260506031006 0 0 0.0 0.0 0.00 0.03 0.00 87 1016.4
20260506030803 0 0 0.0 0.0 0.00 0.03 0.00 87 1016.5
20260506030604 0 0 0.0 0.0 0.00 0.03 0.00 87 1016.5
20260506030403 0 0 0.0 0.0 0.00 0.03 0.00 86 1016.5
20260506030004 0 0 0.0 0.0 0.00 0.03 0.00 86 1016.5
20260506025803 0 0 0.0 0.0 0.00 0.03 0.00 86 1016.5
20260506025604 0 0 0.0 0.0 0.00 0.03 0.00 86 1016.5
20260506025405 0 0 0.0 0.0 0.00 0.03 0.00 86 1016.4
20260506025203 0 0 0.0 0.0 0.00 0.03 0.00 86 1016.4
20260506025004 0 0 0.0 0.0 0.00 0.03 0.00 86 1016.3
20260506024804 0 0 0.0 0.0 0.00 0.03 0.00 86 1016.4
20260506024603 0 0 0.0 0.0 0.00 0.03 0.00 86 1016.3
20260506024403 0 0 0.0 0.0 0.00 0.03 0.00 86 1016.4
20260506024203 0 325 0.0 3.2 0.00 0.03 0.00 86 1016.4
20260506024004 0 325 0.0 3.2 0.00 0.03 0.00 86 1016.4
20260506023805 0 325 0.0 3.2 0.00 0.03 0.00 86 1016.5
20260506023604 0 325 0.0 3.2 0.00 0.03 0.00 86 1016.4
20260506023403 0 325 0.0 3.2 0.00 0.03 0.00 86 1016.4
20260506023203 0 325 0.0 1.6 0.00 0.03 0.00 86 1016.4
20260506023003 0 0 0.0 0.0 0.00 0.03 0.00 86 1016.4
20260506022805 0 0 0.0 0.0 0.00 0.03 0.00 86 1016.3
20260506022604 0 0 0.0 0.0 0.00 0.03 0.00 86 1016.3
20260506022403 0 0 0.0 0.0 0.00 0.03 0.00 85 1016.4
20260506022203 0 0 0.0 0.0 0.00 0.03 0.00 85 1016.4
20260506022003 0 0 0.0 0.0 0.00 0.03 0.00 85 1016.5
20260506021804 0 0 0.0 0.0 0.00 0.03 0.00 85 1016.4
20260506021603 0 325 0.0 1.6 0.00 0.03 0.00 86 1016.4
20260506021403 0 325 0.0 1.6 0.00 0.03 0.00 86 1016.4
20260506021203 0 325 0.0 1.6 0.00 0.03 0.00 86 1016.4
20260506021003 0 325 0.0 1.6 0.00 0.03 0.00 86 1016.4
20260506020803 0 325 0.0 1.6 0.00 0.03 0.00 86 1016.4
20260506020604 0 325 0.0 1.6 0.00 0.03 0.00 85 1016.4
20260506020404 0 0 0.0 0.0 0.00 0.03 0.00 85 1016.4
20260506020203 0 0 0.0 0.0 0.00 0.03 0.00 85 1016.4
20260506020003 0 0 0.0 0.0 0.00 0.03 0.00 86 1016.4
20260506015803 0 0 0.0 0.0 0.00 0.03 0.00 86 1016.4
20260506015603 1 0 0.0 0.0 0.00 0.03 0.00 86 1016.4
20260506015403 1 0 0.0 0.0 0.00 0.03 0.00 86 1016.4
20260506015203 1 325 0.0 1.6 0.00 0.03 0.00 86 1016.5
20260506015004 1 325 0.0 3.2 0.00 0.03 0.00 86 1016.6
20260506014803 1 325 1.6 3.2 0.00 0.03 0.00 86 1016.6
20260506014604 1 326 1.6 6.4 0.00 0.03 0.00 86 1016.6
20260506014403 1 326 1.6 6.4 0.00 0.03 0.00 86 1016.6
20260506014204 1 326 1.6 6.4 0.00 0.03 0.00 86 1016.6
20260506014003 1 326 1.6 6.4 0.00 0.03 0.00 86 1016.6
20260506013804 1 327 1.6 6.4 0.00 0.03 0.00 86 1016.6
20260506013604 1 327 1.6 3.2 0.00 0.03 0.00 86 1016.6
20260506013404 1 327 1.6 3.2 0.00 0.03 0.00 86 1016.6
20260506013204 1 327 1.6 3.2 0.00 0.03 0.00 86 1016.7
20260506013003 1 327 0.0 6.4 0.00 0.03 0.00 86 1016.6
20260506012803 1 327 0.0 6.4 0.00 0.03 0.00 86 1016.7
20260506012604 1 327 0.0 6.4 0.00 0.03 0.00 86 1016.7
20260506012405 1 327 0.0 6.4 0.00 0.03 0.00 86 1016.7
20260506012204 1 327 0.0 6.4 0.00 0.03 0.00 86 1016.7
20260506012003 1 327 0.0 1.6 0.00 0.03 0.00 86 1016.7
20260506011803 0 327 0.0 1.6 0.00 0.03 0.00 86 1016.7
20260506011604 0 0 0.0 0.0 0.00 0.03 0.00 86 1016.7
20260506011403 0 327 0.0 3.2 0.00 0.03 0.00 85 1016.7
20260506011203 0 327 0.0 3.2 0.00 0.03 0.00 85 1016.7
20260506011004 0 327 1.6 6.4 0.00 0.03 0.00 85 1016.7
20260506010804 0 327 1.6 6.4 0.00 0.03 0.00 85 1016.7
20260506010604 0 327 1.6 6.4 0.00 0.03 0.00 85 1016.7
20260506010404 0 327 1.6 6.4 0.00 0.03 0.00 85 1016.7
20260506010204 0 327 1.6 6.4 0.00 0.03 0.00 84 1016.7
20260506010003 0 327 3.2 6.4 0.00 0.03 0.00 84 1016.7
20260506005803 1 328 3.2 6.4 0.00 0.03 0.00 84 1016.7
20260506005603 1 328 3.2 6.4 0.00 0.03 0.00 84 1016.7
20260506005403 1 328 4.8 9.7 0.00 0.03 0.00 84 1016.9
20260506005203 1 328 3.2 9.7 0.00 0.03 0.00 84 1016.9
20260506005003 1 327 3.2 9.7 0.00 0.03 0.00 84 1016.8
20260506004803 1 327 1.6 9.7 0.00 0.03 0.00 84 1016.7
20260506004604 1 327 1.6 9.7 0.00 0.03 0.00 84 1016.8
20260506004404 1 325 0.0 3.2 0.00 0.03 0.00 84 1016.7
20260506004204 1 0 0.0 0.0 0.00 0.03 0.00 84 1016.7
20260506004003 1 0 0.0 0.0 0.00 0.03 0.00 84 1016.7
20260506003804 1 0 0.0 0.0 0.00 0.03 0.00 83 1016.7
20260506003603 1 325 0.0 1.6 0.00 0.03 0.00 83 1016.8
20260506003403 1 325 0.0 3.2 0.00 0.03 0.00 83 1016.7
20260506003204 1 325 0.0 3.2 0.00 0.03 0.00 83 1016.8
20260506003003 1 325 1.6 3.2 0.00 0.03 0.00 83 1016.8
20260506002803 1 325 1.6 6.4 0.00 0.03 0.00 83 1016.8
20260506002603 1 325 1.6 6.4 0.00 0.03 0.00 83 1016.7
20260506002404 1 326 3.2 8.0 0.00 0.03 0.00 83 1016.7
20260506002204 1 327 3.2 8.0 0.00 0.03 0.00 83 1016.7
20260506002003 1 328 3.2 8.0 0.00 0.03 0.00 83 1016.7
20260506001803 1 329 3.2 8.0 0.00 0.03 0.00 83 1016.7
20260506001604 1 330 3.2 8.0 0.00 0.03 0.00 82 1016.7
20260506001403 1 331 1.6 6.4 0.00 0.03 0.00 82 1016.7
20260506001204 1 330 1.6 6.4 0.00 0.03 0.00 82 1016.7
20260506001003 1 330 1.6 6.4 0.00 0.03 0.00 82 1016.7
20260506000803 1 330 0.0 3.2 0.00 0.03 0.00 82 1016.6
20260506000604 1 330 0.0 3.2 0.00 0.03 0.00 82 1016.6
20260506000403 1 0 0.0 0.0 0.00 0.03 0.00 82 1016.7
20260506000204 2 0 0.0 0.0 0.00 0.03 0.00 82 1016.7
20260506000003 2 0 0.0 0.0 0.00 0.03 0.00 81 1016.6
20260505235804 2 0 0.0 0.0 0.00 0.03 0.00 81 1016.6
20260505235603 2 330 0.0 1.6 0.00 0.03 0.00 81 1016.7
20260505235403 2 330 0.0 1.6 0.00 0.03 0.00 81 1016.7
20260505235204 2 330 0.0 1.6 0.00 0.03 0.00 82 1016.6
20260505235004 2 330 0.0 1.6 0.00 0.03 0.00 82 1016.7
20260505234803 2 330 0.0 1.6 0.00 0.03 0.00 82 1016.6
20260505234604 2 330 0.0 3.2 0.00 0.03 0.00 82 1016.7
20260505234404 2 330 0.0 3.2 0.00 0.03 0.00 82 1016.6
20260505234204 2 330 1.6 3.2 0.00 0.03 0.00 82 1016.6
20260505234004 2 330 1.6 3.2 0.00 0.03 0.00 82 1016.7
20260505233804 2 330 1.6 3.2 0.00 0.03 0.00 82 1016.6
20260505233603 2 330 1.6 6.4 0.00 0.03 0.00 82 1016.6
20260505233404 2 332 3.2 6.4 0.00 0.03 0.00 82 1016.7
20260505233203 2 333 3.2 6.4 0.00 0.03 0.00 82 1016.7
20260505233003 2 334 3.2 6.4 0.00 0.03 0.00 82 1016.7
20260505232804 2 336 3.2 6.4 0.00 0.03 0.00 82 1016.7
20260505232603 2 338 3.2 6.4 0.00 0.03 0.00 82 1016.7
20260505232404 2 339 3.2 6.4 0.00 0.03 0.00 82 1016.7
20260505232203 2 340 3.2 6.4 0.00 0.03 0.00 82 1016.7
20260505232003 2 341 1.6 6.4 0.00 0.03 0.00 82 1016.9
20260505231804 2 341 1.6 6.4 0.00 0.03 0.00 82 1016.8
20260505231604 2 341 1.6 6.4 0.00 0.03 0.00 82 1016.8
20260505231404 2 341 1.6 6.4 0.00 0.03 0.00 82 1016.7
20260505231204 2 341 1.6 3.2 0.00 0.03 0.00 82 1016.8
20260505231003 2 341 1.6 3.2 0.00 0.03 0.00 82 1016.7
20260505230804 2 341 1.6 3.2 0.00 0.03 0.00 82 1016.8
20260505230603 2 341 1.6 3.2 0.00 0.03 0.00 82 1016.7
20260505230403 2 341 1.6 3.2 0.00 0.03 0.00 82 1016.8
20260505230204 2 341 1.6 3.2 0.00 0.03 0.00 82 1016.8
20260505230004 2 341 1.6 3.2 0.00 0.03 0.00 82 1016.8
20260505225804 2 341 1.6 3.2 0.00 0.03 0.03 82 1016.8
20260505225603 2 341 1.6 3.2 0.00 0.03 0.03 82 1016.7
20260505225403 2 341 1.6 3.2 0.00 0.03 0.03 82 1016.7
20260505225203 2 341 1.6 3.2 0.00 0.03 0.03 81 1016.7
20260505225004 2 341 0.0 3.2 0.00 0.03 0.03 81 1016.8
20260505224803 2 341 0.0 1.6 0.00 0.03 0.03 81 1016.8
20260505224604 2 341 0.0 1.6 0.00 0.03 0.03 81 1016.8
20260505224403 2 341 0.0 3.2 0.00 0.03 0.03 81 1016.8
20260505224203 2 341 0.0 3.2 0.00 0.03 0.03 81 1016.9
20260505224003 2 341 1.6 3.2 0.00 0.03 0.03 81 1016.8
20260505223804 2 341 1.6 3.2 0.00 0.03 0.03 81 1016.9
20260505223604 2 341 1.6 3.2 0.00 0.03 0.03 81 1016.9
20260505223404 2 341 3.2 3.2 0.00 0.03 0.03 81 1016.9
20260505223203 2 341 1.6 3.2 0.00 0.03 0.03 81 1016.9
20260505223003 2 341 1.6 3.2 0.00 0.03 0.03 81 1017.0
20260505222803 2 341 1.6 3.2 0.00 0.03 0.03 81 1016.9
20260505222605 2 341 1.6 3.2 0.00 0.03 0.03 81 1017.0
20260505222405 2 341 0.0 3.2 0.00 0.03 0.03 81 1017.0
20260505222203 2 341 0.0 1.6 0.00 0.03 0.03 81 1017.0
20260505222004 2 341 0.0 1.6 0.00 0.03 0.03 81 1017.0
20260505221803 2 341 0.0 3.2 0.00 0.03 0.03 81 1017.0
20260505221604 3 341 0.0 3.2 0.00 0.03 0.03 81 1017.0
20260505221404 3 341 0.0 3.2 0.00 0.03 0.03 81 1017.1
20260505221203 3 341 0.0 3.2 0.00 0.03 0.03 80 1017.1
20260505221004 3 341 0.0 3.2 0.00 0.03 0.03 80 1017.1
20260505220803 3 341 0.0 3.2 0.00 0.03 0.03 81 1017.1
20260505220604 3 341 1.6 3.2 0.00 0.03 0.03 81 1017.1
20260505220403 3 341 1.6 3.2 0.00 0.03 0.03 80 1017.1
20260505220203 3 341 1.6 3.2 0.00 0.03 0.03 80 1017.2
20260505220003 3 341 1.6 3.2 0.00 0.03 0.03 80 1017.1
20260505215804 3 341 1.6 3.2 0.00 0.03 0.03 80 1017.1
20260505215603 3 341 1.6 3.2 0.00 0.03 0.03 80 1017.2
20260505215404 3 341 1.6 3.2 0.00 0.03 0.03 80 1017.1
20260505215205 3 341 1.6 3.2 0.00 0.03 0.03 80 1017.1
20260505215003 3 341 0.0 3.2 0.00 0.03 0.03 80 1017.2
20260505214803 3 341 0.0 3.2 0.00 0.03 0.03 80 1017.2
20260505214604 3 341 0.0 3.2 0.00 0.03 0.03 80 1017.2
20260505214403 3 341 1.6 3.2 0.00 0.03 0.03 79 1017.2
20260505214204 3 341 1.6 3.2 0.00 0.03 0.03 79 1017.2
20260505214004 3 341 1.6 3.2 0.00 0.03 0.03 79 1017.1
20260505213803 3 341 1.6 3.2 0.00 0.03 0.03 79 1017.2
20260505213604 3 341 1.6 3.2 0.00 0.03 0.03 79 1017.2
20260505213403 3 341 1.6 3.2 0.00 0.03 0.03 79 1017.2
20260505213203 3 341 0.0 3.2 0.00 0.03 0.03 79 1017.2
20260505213004 3 341 0.0 3.2 0.00 0.03 0.03 79 1017.2
20260505212804 3 341 1.6 3.2 0.00 0.03 0.03 79 1017.2
20260505212604 3 341 1.6 3.2 0.00 0.03 0.03 79 1017.2
20260505212403 3 341 1.6 3.2 0.00 0.03 0.03 78 1017.1
20260505212203 3 341 1.6 3.2 0.00 0.03 0.03 78 1017.1
20260505212004 3 341 1.6 3.2 0.00 0.03 0.03 78 1017.1
20260505211803 3 341 1.6 6.4 0.00 0.03 0.03 78 1017.0
20260505211603 3 341 1.6 6.4 0.00 0.03 0.03 78 1017.1
20260505211404 3 341 1.6 6.4 0.00 0.03 0.03 78 1017.0
20260505211205 3 341 1.6 6.4 0.00 0.03 0.03 78 1017.0
20260505211003 3 341 1.6 6.4 0.00 0.03 0.03 78 1017.0
20260505210805 3 341 1.6 3.2 0.00 0.03 0.03 78 1017.1
20260505210603 4 341 0.0 3.2 0.00 0.03 0.03 78 1017.0
20260505210403 4 341 0.0 3.2 0.00 0.03 0.03 78 1017.1
20260505210204 4 341 1.6 3.2 0.00 0.03 0.03 78 1017.1
20260505210003 4 341 1.6 3.2 0.00 0.03 0.03 78 1017.1
20260505205803 4 341 1.6 3.2 0.00 0.03 0.03 78 1017.2
20260505205603 4 341 1.6 3.2 0.00 0.03 0.03 78 1017.1
20260505205404 4 341 1.6 6.4 0.00 0.03 0.03 78 1017.1
20260505205203 4 341 1.6 6.4 0.00 0.03 0.03 78 1017.1
20260505205003 4 341 1.6 6.4 0.00 0.03 0.03 78 1017.1
20260505204803 4 341 1.6 6.4 0.00 0.03 0.03 78 1017.1
20260505204603 4 341 1.6 6.4 0.00 0.03 0.03 77 1017.1
20260505204403 4 341 0.0 3.2 0.00 0.03 0.03 77 1017.1
20260505204203 4 341 0.0 3.2 0.00 0.03 0.03 77 1017.1
20260505204004 4 341 0.0 3.2 0.00 0.03 0.03 76 1017.1
20260505203804 4 341 0.0 3.2 0.00 0.03 0.03 76 1017.2
20260505203603 4 341 0.0 3.2 0.00 0.03 0.03 76 1017.1
20260505203404 4 341 0.0 3.2 0.00 0.03 0.03 76 1017.1
20260505203204 4 341 0.0 3.2 0.00 0.03 0.03 76 1017.1
20260505203003 4 341 0.0 3.2 0.00 0.03 0.03 76 1017.2
20260505202804 4 341 0.0 3.2 0.00 0.03 0.03 76 1017.1
20260505202605 4 341 0.0 3.2 0.00 0.03 0.03 76 1017.2
20260505202403 4 341 0.0 3.2 0.00 0.03 0.03 76 1017.1
20260505202204 5 341 0.0 1.6 0.00 0.03 0.03 76 1017.1
20260505202004 5 341 0.0 1.6 0.00 0.03 0.03 75 1017.1
20260505201804 5 341 0.0 1.6 0.00 0.03 0.03 75 1017.1
20260505201604 5 341 0.0 3.2 0.00 0.03 0.03 75 1017.1
20260505201404 5 340 0.0 3.2 0.00 0.03 0.03 75 1017.1
20260505201203 5 340 1.6 3.2 0.00 0.03 0.03 75 1017.2
20260505201003 5 340 1.6 6.4 0.00 0.03 0.03 75 1017.2
20260505200803 5 340 1.6 6.4 0.00 0.03 0.03 75 1017.1
20260505200603 5 340 1.6 6.4 0.00 0.03 0.03 75 1017.1
20260505200403 5 340 1.6 6.4 0.00 0.03 0.03 75 1017.1
20260505200203 5 340 1.6 6.4 0.00 0.03 0.03 74 1017.1
20260505200003 5 340 1.6 6.4 0.00 0.03 0.03 74 1017.1
20260505195803 5 340 1.6 3.2 0.00 0.03 0.03 74 1017.1
20260505195604 5 340 1.6 3.2 0.00 0.03 0.03 74 1017.0
20260505195404 5 340 1.6 6.4 0.00 0.03 0.03 74 1017.1
20260505195203 5 340 3.2 6.4 0.00 0.03 0.03 74 1017.0
20260505195003 5 340 3.2 6.4 0.00 0.03 0.03 74 1017.1
20260505194804 5 340 3.2 8.0 0.00 0.03 0.03 73 1017.0
20260505194604 5 340 3.2 8.0 0.00 0.03 0.03 73 1017.0
20260505194404 5 340 3.2 8.0 0.00 0.03 0.03 73 1017.0
20260505194203 5 340 3.2 8.0 0.00 0.03 0.03 73 1017.0
20260505194004 5 340 3.2 8.0 0.00 0.03 0.03 73 1017.1
20260505193805 5 340 3.2 8.0 0.00 0.03 0.03 72 1017.0
20260505193603 5 340 3.2 8.0 0.00 0.03 0.03 72 1017.1
20260505193404 5 340 3.2 8.0 0.00 0.03 0.03 72 1017.0
20260505193204 5 340 4.8 8.0 0.00 0.03 0.03 71 1017.0
20260505193003 5 341 4.8 8.0 0.00 0.03 0.03 71 1017.0
20260505192803 6 340 4.8 9.7 0.00 0.03 0.03 71 1016.9
20260505192604 6 341 6.4 9.7 0.00 0.03 0.03 70 1016.9
20260505192404 6 341 6.4 9.7 0.00 0.03 0.03 70 1017.0
20260505192204 6 340 6.4 9.7 0.00 0.03 0.03 69 1017.0
20260505192003 6 338 6.4 11.3 0.00 0.03 0.03 69 1016.9
20260505191804 6 338 6.4 11.3 0.00 0.03 0.03 69 1016.9
20260505191603 6 337 6.4 11.3 0.00 0.03 0.03 69 1016.9
20260505191404 6 336 6.4 11.3 0.00 0.03 0.03 68 1016.9
20260505191203 6 335 6.4 11.3 0.00 0.03 0.03 68 1016.8
20260505191003 6 337 6.4 11.3 0.00 0.03 0.03 68 1016.9
20260505190804 6 336 6.4 11.3 0.00 0.03 0.03 67 1016.8
20260505190603 6 336 6.4 11.3 0.00 0.03 0.03 67 1016.8
20260505190403 6 337 6.4 11.3 0.00 0.03 0.03 67 1016.8
20260505190203 6 339 6.4 11.3 0.00 0.03 0.03 67 1016.8